| time (UTC) | temp C | wind direction | speed KPH | gust KPH | rain 1hr cm | rain 24hr cm | rain mn cm | humidity % | barometer mb |
| 20260505124334 | 13 | 134 | 0.0 | 0.0 | 0.00 | 0.00 | 0.00 | 85 | 1010.8 |
| 20260505123322 | 13 | 127 | 0.0 | 0.0 | 0.00 | 0.00 | 0.00 | 83 | 1011.3 |
| 20260505122330 | 13 | 124 | 0.0 | 1.6 | 0.00 | 0.00 | 0.00 | 84 | 1011.5 |
| 20260505121339 | 13 | 124 | 0.0 | 1.6 | 0.00 | 0.00 | 0.00 | 86 | 1011.7 |
| 20260505120334 | 12 | 128 | 0.0 | 1.6 | 0.00 | 0.00 | 0.00 | 90 | 1011.7 |
| 20260505115325 | 11 | 127 | 0.0 | 1.6 | 0.00 | 0.00 | 0.00 | 91 | 1011.8 |
| 20260505114340 | 11 | 115 | 0.0 | 1.6 | 0.00 | 0.00 | 0.00 | 93 | 1011.7 |
| 20260505113329 | 11 | 146 | 0.0 | 0.0 | 0.00 | 0.00 | 0.00 | 93 | 1011.7 |
| 20260505112318 | 10 | 192 | 0.0 | 1.6 | 0.00 | 0.00 | 0.00 | 95 | 1011.8 |
| 20260505111325 | 10 | 285 | 0.0 | 0.0 | 0.00 | 0.00 | 0.00 | 95 | 1011.6 |
| 20260505110334 | 10 | 286 | 0.0 | 1.6 | 0.00 | 0.00 | 0.00 | 96 | 1011.5 |
| 20260505101322 | 8 | 188 | 0.0 | 0.0 | 0.00 | 0.00 | 0.00 | 94 | 1010.8 |
| 20260505100331 | 8 | 269 | 0.0 | 0.0 | 0.00 | 0.00 | 0.00 | 94 | 1010.6 |
| 20260505095319 | 8 | 269 | 0.0 | 0.0 | 0.00 | 0.00 | 0.00 | 94 | 1010.5 |
| 20260505094329 | 8 | 269 | 0.0 | 1.6 | 0.00 | 0.00 | 0.00 | 93 | 1010.6 |
| 20260505093337 | 8 | 269 | 0.0 | 0.0 | 0.00 | 0.00 | 0.00 | 94 | 1010.6 |
| 20260505092326 | 8 | 270 | 0.0 | 0.0 | 0.00 | 0.00 | 0.00 | 94 | 1010.4 |
| 20260505091313 | 8 | 270 | 0.0 | 0.0 | 0.00 | 0.00 | 0.00 | 93 | 1010.6 |
| 20260505090329 | 8 | 270 | 0.0 | 0.0 | 0.00 | 0.00 | 0.00 | 92 | 1010.5 |
| 20260505085338 | 8 | 270 | 0.0 | 0.0 | 0.00 | 0.00 | 0.00 | 92 | 1010.4 |
| 20260505084347 | 8 | 270 | 0.0 | 0.0 | 0.00 | 0.00 | 0.00 | 92 | 1010.5 |
| 20260505083314 | 8 | 270 | 0.0 | 0.0 | 0.00 | 0.00 | 0.00 | 92 | 1010.5 |
| 20260505082323 | 8 | 269 | 0.0 | 0.0 | 0.00 | 0.00 | 0.00 | 92 | 1010.7 |
| 20260505081313 | 8 | 270 | 0.0 | 0.0 | 0.00 | 0.00 | 0.00 | 91 | 1010.6 |
| 20260505080328 | 8 | 269 | 0.0 | 0.0 | 0.00 | 0.00 | 0.00 | 91 | 1010.7 |
| 20260505075336 | 8 | 270 | 0.0 | 0.0 | 0.00 | 0.00 | 0.00 | 91 | 1010.6 |
| 20260505074326 | 8 | 270 | 0.0 | 0.0 | 0.00 | 0.00 | 0.00 | 90 | 1010.7 |
| 20260505073343 | 8 | 270 | 0.0 | 0.0 | 0.00 | 0.00 | 0.00 | 91 | 1010.6 |
| 20260505072329 | 8 | 270 | 0.0 | 0.0 | 0.00 | 0.00 | 0.00 | 90 | 1010.6 |
| 20260505071319 | 8 | 270 | 0.0 | 0.0 | 0.00 | 0.00 | 0.00 | 89 | 1010.6 |
| 20260505070337 | 8 | 269 | 0.0 | 0.0 | 0.00 | 0.00 | 0.00 | 88 | 1010.6 |
| 20260505065325 | 8 | 270 | 0.0 | 0.0 | 0.00 | 0.00 | 0.00 | 88 | 1010.6 |
| 20260505064313 | 8 | 270 | 0.0 | 0.0 | 0.00 | 0.00 | 0.00 | 87 | 1010.6 |
| 20260505063348 | 8 | 270 | 0.0 | 1.6 | 0.00 | 0.00 | 0.00 | 87 | 1010.7 |
| 20260505062334 | 8 | 270 | 0.0 | 0.0 | 0.00 | 0.00 | 0.00 | 86 | 1010.7 |
| 20260505061329 | 9 | 270 | 0.0 | 0.0 | 0.00 | 0.00 | 0.00 | 86 | 1010.7 |
| 20260505060335 | 9 | 270 | 0.0 | 0.0 | 0.00 | 0.00 | 0.00 | 86 | 1010.7 |
| 20260505055316 | 9 | 269 | 0.0 | 0.0 | 0.00 | 0.00 | 0.00 | 85 | 1010.8 |
| 20260505054324 | 9 | 270 | 0.0 | 0.0 | 0.00 | 0.00 | 0.00 | 84 | 1010.9 |
| 20260505053312 | 9 | 270 | 0.0 | 0.0 | 0.00 | 0.00 | 0.00 | 83 | 1011.0 |
| 20260505052327 | 10 | 270 | 0.0 | 0.0 | 0.00 | 0.00 | 0.00 | 82 | 1011.0 |
| 20260505051315 | 10 | 269 | 0.0 | 0.0 | 0.00 | 0.00 | 0.00 | 81 | 1011.0 |
| 20260505050321 | 10 | 270 | 0.0 | 0.0 | 0.00 | 0.00 | 0.00 | 80 | 1011.1 |
| 20260505041326 | 11 | 136 | 0.0 | 0.0 | 0.00 | 0.00 | 0.00 | 79 | 1011.4 |
| 20260505040333 | 11 | 136 | 0.0 | 1.6 | 0.00 | 0.00 | 0.00 | 78 | 1011.4 |
| 20260505035316 | 11 | 136 | 0.0 | 0.0 | 0.00 | 0.00 | 0.00 | 78 | 1011.3 |
| 20260505034332 | 11 | 134 | 0.0 | 0.0 | 0.00 | 0.00 | 0.00 | 78 | 1011.4 |
| 20260505033323 | 11 | 134 | 0.0 | 1.6 | 0.00 | 0.00 | 0.00 | 78 | 1011.2 |
| 20260505032330 | 11 | 134 | 0.0 | 0.0 | 0.00 | 0.00 | 0.00 | 77 | 1011.3 |
| 20260505031318 | 11 | 134 | 0.0 | 1.6 | 0.00 | 0.00 | 0.00 | 77 | 1011.4 |
| 20260505030326 | 11 | 134 | 0.0 | 1.6 | 0.00 | 0.00 | 0.00 | 77 | 1011.4 |
| 20260505025316 | 11 | 134 | 0.0 | 1.6 | 0.00 | 0.00 | 0.00 | 76 | 1011.4 |
| 20260505024350 | 11 | 134 | 0.0 | 1.6 | 0.00 | 0.00 | 0.00 | 76 | 1011.3 |
| 20260505023317 | 11 | 153 | 0.0 | 0.0 | 0.00 | 0.00 | 0.00 | 75 | 1011.3 |
| 20260505022327 | 12 | 153 | 0.0 | 0.0 | 0.00 | 0.00 | 0.00 | 74 | 1011.5 |
| 20260505021317 | 12 | 153 | 0.0 | 1.6 | 0.00 | 0.00 | 0.00 | 73 | 1011.5 |
| 20260505020327 | 12 | 122 | 0.0 | 3.2 | 0.00 | 0.00 | 0.00 | 73 | 1011.5 |
| 20260505015336 | 12 | 238 | 0.0 | 1.6 | 0.00 | 0.00 | 0.00 | 73 | 1011.4 |
| 20260505014323 | 12 | 163 | 0.0 | 3.2 | 0.00 | 0.00 | 0.00 | 72 | 1011.3 |
| 20260505013312 | 12 | 139 | 0.0 | 1.6 | 0.00 | 0.00 | 0.00 | 71 | 1011.2 |
| 20260505011350 | 13 | 212 | 0.0 | 1.6 | 0.00 | 0.00 | 0.00 | 68 | 1011.2 |
| 20260505010319 | 13 | 214 | 0.0 | 3.2 | 0.00 | 0.00 | 0.00 | 67 | 1010.9 |
| 20260505005334 | 13 | 96 | 1.6 | 4.8 | 0.00 | 0.00 | 0.00 | 65 | 1010.7 |
| 20260505004330 | 13 | 122 | 0.0 | 3.2 | 0.00 | 0.00 | 0.00 | 64 | 1010.6 |
| 20260505003319 | 14 | 153 | 0.0 | 4.8 | 0.00 | 0.00 | 0.00 | 62 | 1010.6 |
| 20260505002327 | 14 | 145 | 0.0 | 3.2 | 0.00 | 0.00 | 0.00 | 61 | 1010.4 |
| 20260505001316 | 15 | 71 | 0.0 | 6.4 | 0.00 | 0.00 | 0.00 | 59 | 1010.3 |
| 20260505000330 | 15 | 162 | 0.0 | 6.4 | 0.00 | 0.00 | 0.00 | 58 | 1010.1 |
| 20260504235319 | 15 | 158 | 0.0 | 6.4 | 0.00 | 0.00 | 0.00 | 55 | 1009.8 |
| 20260504234313 | 16 | 134 | 1.6 | 6.4 | 0.00 | 0.00 | 0.00 | 53 | 1009.6 |
| 20260504233322 | 16 | 124 | 0.0 | 4.8 | 0.00 | 0.00 | 0.00 | 52 | 1009.7 |
| 20260504232338 | 17 | 130 | 3.2 | 14.5 | 0.00 | 0.00 | 0.00 | 50 | 1009.5 |
| 20260504231324 | 17 | 193 | 1.6 | 4.8 | 0.00 | 0.00 | 0.00 | 50 | 1009.2 |
| 20260504230335 | 17 | 139 | 0.0 | 9.7 | 0.00 | 0.00 | 0.00 | 50 | 1009.2 |
| 20260504225346 | 18 | 255 | 0.0 | 11.3 | 0.00 | 0.00 | 0.00 | 49 | 1009.2 |
| 20260504224318 | 18 | 160 | 0.0 | 3.2 | 0.00 | 0.00 | 0.00 | 48 | 1009.1 |
| 20260504223326 | 18 | 142 | 1.6 | 9.7 | 0.00 | 0.00 | 0.00 | 46 | 1009.0 |
| 20260504222316 | 20 | 141 | 1.6 | 8.0 | 0.00 | 0.00 | 0.00 | 44 | 1009.3 |
| 20260504221332 | 20 | 132 | 0.0 | 8.0 | 0.00 | 0.00 | 0.00 | 43 | 1009.3 |
| 20260504220316 | 20 | 359 | 0.0 | 4.8 | 0.00 | 0.00 | 0.00 | 43 | 1009.4 |
| 20260504215326 | 20 | 224 | 1.6 | 9.7 | 0.00 | 0.00 | 0.00 | 43 | 1009.5 |
| 20260504214336 | 20 | 26 | 1.6 | 8.0 | 0.00 | 0.00 | 0.00 | 43 | 1009.5 |
| 20260504213325 | 20 | 312 | 1.6 | 11.3 | 0.00 | 0.00 | 0.00 | 42 | 1009.3 |
| 20260504212341 | 20 | 150 | 3.2 | 8.0 | 0.00 | 0.00 | 0.00 | 41 | 1009.4 |
| 20260504211329 | 21 | 274 | 3.2 | 11.3 | 0.00 | 0.00 | 0.00 | 39 | 1009.4 |
| 20260504210319 | 21 | 165 | 3.2 | 8.0 | 0.00 | 0.00 | 0.00 | 39 | 1009.2 |
| 20260504205327 | 22 | 149 | 1.6 | 6.4 | 0.00 | 0.00 | 0.00 | 37 | 1009.2 |
| 20260504204337 | 22 | 82 | 0.0 | 11.3 | 0.00 | 0.00 | 0.00 | 34 | 1009.0 |
| 20260504203324 | 22 | 131 | 1.6 | 8.0 | 0.00 | 0.00 | 0.00 | 34 | 1009.1 |
| 20260504202312 | 22 | 254 | 3.2 | 9.7 | 0.00 | 0.00 | 0.00 | 32 | 1009.2 |
| 20260504201320 | 22 | 134 | 0.0 | 12.9 | 0.00 | 0.00 | 0.00 | 35 | 1009.1 |
| 20260504200335 | 22 | 5 | 4.8 | 9.7 | 0.00 | 0.00 | 0.00 | 31 | 1009.4 |
| 20260504195322 | 22 | 255 | 1.6 | 8.0 | 0.00 | 0.00 | 0.00 | 33 | 1009.7 |
| 20260504194313 | 22 | 272 | 4.8 | 19.3 | 0.00 | 0.00 | 0.00 | 32 | 1009.2 |
| 20260504193329 | 22 | 274 | 3.2 | 9.7 | 0.00 | 0.00 | 0.00 | 32 | 1009.4 |
| 20260504192318 | 22 | 162 | 1.6 | 8.0 | 0.00 | 0.00 | 0.00 | 32 | 1009.4 |
| 20260504191327 | 22 | 136 | 3.2 | 6.4 | 0.00 | 0.00 | 0.00 | 31 | 1009.5 |
| 20260504190335 | 22 | 278 | 3.2 | 11.3 | 0.00 | 0.00 | 0.00 | 33 | 1009.6 |
| 20260504185330 | 22 | 266 | 3.2 | 11.3 | 0.00 | 0.00 | 0.00 | 32 | 1009.7 |
| 20260504184350 | 21 | 307 | 1.6 | 8.0 | 0.00 | 0.00 | 0.00 | 33 | 1009.5 |
| 20260504183319 | 21 | 148 | 3.2 | 9.7 | 0.00 | 0.00 | 0.00 | 34 | 1009.9 |
| 20260504182336 | 21 | 347 | 3.2 | 9.7 | 0.00 | 0.00 | 0.00 | 34 | 1010.0 |
| 20260504181326 | 21 | 179 | 1.6 | 14.5 | 0.00 | 0.00 | 0.00 | 32 | 1010.1 |
| 20260504180315 | 21 | 156 | 3.2 | 9.7 | 0.00 | 0.00 | 0.00 | 31 | 1010.2 |
| 20260504175333 | 21 | 276 | 1.6 | 12.9 | 0.00 | 0.00 | 0.00 | 35 | 1010.5 |
| 20260504174321 | 20 | 242 | 3.2 | 12.9 | 0.00 | 0.00 | 0.00 | 34 | 1010.9 |
| 20260504173313 | 20 | 151 | 4.8 | 17.7 | 0.00 | 0.00 | 0.00 | 35 | 1010.6 |
| 20260504172322 | 20 | 24 | 1.6 | 20.9 | 0.00 | 0.00 | 0.00 | 32 | 1010.6 |
| 20260504171311 | 20 | 282 | 1.6 | 8.0 | 0.00 | 0.00 | 0.00 | 34 | 1011.0 |
| 20260504170327 | 20 | 276 | 3.2 | 6.4 | 0.00 | 0.00 | 0.00 | 35 | 1010.9 |
| 20260504160321 | 18 | 307 | 3.2 | 12.9 | 0.00 | 0.00 | 0.00 | 36 | 1011.7 |
| 20260504150316 | 17 | 294 | 3.2 | 11.3 | 0.00 | 0.00 | 0.00 | 35 | 1012.5 |
| 20260504141313 | 16 | 180 | 1.6 | 14.5 | 0.00 | 0.00 | 0.00 | 37 | 1012.5 |
| 20260504140332 | 16 | 124 | 1.6 | 14.5 | 0.00 | 0.00 | 0.00 | 39 | 1012.6 |